Time,TemperatureF,DewpointF,PressureIn,WindDirection,WindDirectionDegrees,WindSpeedMPH,WindSpeedGustMPH,Humidity,HourlyPrecipIn,Conditions,Clouds,dailyrainin,SoftwareType,DateUTC
2013-05-22 00:03:00,52.3,47.3,29.75,NNW,338,0.0,3.5,83,0.00,,,0.00,WUHU216HW,2013-05-22 05:03:00,
2013-05-22 00:08:00,52.3,47.3,29.75,WNW,293,0.0,6.2,83,0.00,,,0.00,WUHU216HW,2013-05-22 05:08:00,
2013-05-22 00:13:00,52.3,47.3,29.75,WNW,293,2.4,6.2,83,0.00,,,0.00,WUHU216HW,2013-05-22 05:13:00,
2013-05-22 00:18:00,52.3,47.3,29.75,WNW,293,0.0,3.3,83,0.00,,,0.00,WUHU216HW,2013-05-22 05:18:00,
2013-05-22 00:23:00,52.5,47.5,29.75,NW,315,0.0,3.3,83,0.00,,,0.00,WUHU216HW,2013-05-22 05:23:00,
2013-05-22 00:28:00,52.5,47.1,29.75,NNW,338,3.8,7.3,82,0.00,,,0.00,WUHU216HW,2013-05-22 05:28:00,
2013-05-22 00:33:00,52.3,47.0,29.76,North,0,0.0,7.3,81,0.00,,,0.00,WUHU216HW,2013-05-22 05:33:00,
2013-05-22 00:38:00,52.3,46.7,29.76,NW,315,2.0,4.4,81,0.00,,,0.00,WUHU216HW,2013-05-22 05:38:00,
2013-05-22 00:43:00,52.3,46.7,29.76,North,0,0.0,4.4,81,0.00,,,0.00,WUHU216HW,2013-05-22 05:43:00,
2013-05-22 00:48:00,52.1,46.5,29.76,NNW,338,0.0,2.0,81,0.00,,,0.00,WUHU216HW,2013-05-22 05:48:00,
2013-05-22 00:53:00,52.1,46.5,29.76,NNW,338,0.0,1.1,81,0.00,,,0.00,WUHU216HW,2013-05-22 05:53:00,
2013-05-22 00:58:00,52.1,46.5,29.76,NW,315,0.0,0.0,81,0.00,,,0.00,WUHU216HW,2013-05-22 05:58:00,
2013-05-22 01:03:00,52.1,46.5,29.76,NW,315,0.0,3.8,81,0.00,,,0.00,WUHU216HW,2013-05-22 06:03:00,
2013-05-22 01:08:00,52.1,46.5,29.76,WNW,293,0.0,3.8,81,0.00,,,0.00,WUHU216HW,2013-05-22 06:08:00,
2013-05-22 01:13:00,52.1,46.5,29.76,WNW,293,0.4,0.4,81,0.00,,,0.00,WUHU216HW,2013-05-22 06:13:00,
2013-05-22 01:18:00,52.1,46.5,29.76,WNW,293,0.6,1.7,81,0.00,,,0.00,WUHU216HW,2013-05-22 06:18:00,
2013-05-22 01:23:00,52.1,46.5,29.76,West,270,2.0,2.0,81,0.00,,,0.00,WUHU216HW,2013-05-22 06:23:00,
2013-05-22 01:28:00,51.9,46.3,29.76,WNW,293,2.9,7.6,81,0.00,,,0.00,WUHU216HW,2013-05-22 06:28:00,
2013-05-22 01:33:00,51.9,46.6,29.76,NW,315,3.1,7.6,82,0.00,,,0.00,WUHU216HW,2013-05-22 06:33:00,
2013-05-22 01:38:00,51.9,46.6,29.76,WNW,293,2.6,6.7,82,0.00,,,0.00,WUHU216HW,2013-05-22 06:38:00,
2013-05-22 01:43:00,51.9,46.6,29.76,NNW,338,3.5,5.8,82,0.00,,,0.00,WUHU216HW,2013-05-22 06:43:00,
2013-05-22 01:48:00,51.8,46.1,29.76,WNW,293,4.9,6.2,81,0.00,,,0.00,WUHU216HW,2013-05-22 06:48:00,
2013-05-22 01:53:00,51.6,46.2,29.76,West,270,4.4,7.6,82,0.00,,,0.00,WUHU216HW,2013-05-22 06:53:00,
2013-05-22 01:58:00,51.6,46.2,29.76,NW,315,0.0,7.6,82,0.00,,,0.00,WUHU216HW,2013-05-22 06:58:00,
2013-05-22 02:03:00,51.6,46.2,29.77,WNW,293,0.0,4.4,82,0.00,,,0.00,WUHU216HW,2013-05-22 07:03:00,
2013-05-22 02:08:00,51.8,46.4,29.76,WNW,293,6.4,6.4,82,0.00,,,0.00,WUHU216HW,2013-05-22 07:08:00,
2013-05-22 02:13:00,51.6,46.6,29.76,WNW,293,0.0,6.4,83,0.00,,,0.00,WUHU216HW,2013-05-22 07:13:00,
2013-05-22 02:18:00,51.6,46.6,29.77,WNW,293,8.0,8.0,83,0.00,,,0.00,WUHU216HW,2013-05-22 07:18:00,
2013-05-22 02:23:00,51.6,46.6,29.77,WNW,293,0.0,8.0,83,0.00,,,0.00,WUHU216HW,2013-05-22 07:23:00,
2013-05-22 02:28:00,51.6,46.6,29.77,WNW,293,0.0,8.0,83,0.00,,,0.00,WUHU216HW,2013-05-22 07:28:00,
2013-05-22 02:33:00,51.6,46.6,29.77,NNW,338,0.0,2.4,83,0.00,,,0.00,WUHU216HW,2013-05-22 07:33:00,
2013-05-22 02:38:00,51.6,46.6,29.77,WNW,293,1.7,4.2,83,0.00,,,0.00,WUHU216HW,2013-05-22 07:38:00,
2013-05-22 02:43:00,51.4,46.4,29.77,WNW,293,2.0,4.2,83,0.00,,,0.00,WUHU216HW,2013-05-22 07:43:00,
2013-05-22 02:48:00,51.4,46.4,29.77,WNW,293,5.1,5.1,83,0.00,,,0.00,WUHU216HW,2013-05-22 07:48:00,
2013-05-22 02:53:00,51.4,46.4,29.77,NW,315,0.8,5.1,83,0.00,,,0.00,WUHU216HW,2013-05-22 07:53:00,
2013-05-22 02:58:00,51.4,46.4,29.77,NW,315,4.6,5.1,83,0.00,,,0.00,WUHU216HW,2013-05-22 07:58:00,
2013-05-22 03:03:00,51.4,46.4,29.77,WNW,293,2.9,4.6,83,0.00,,,0.00,WUHU216HW,2013-05-22 08:03:00,
2013-05-22 03:08:00,51.4,46.7,29.77,WNW,293,2.4,4.9,84,0.00,,,0.00,WUHU216HW,2013-05-22 08:08:00,
2013-05-22 03:13:00,51.4,46.7,29.77,West,270,4.6,4.9,84,0.00,,,0.00,WUHU216HW,2013-05-22 08:13:00,
2013-05-22 03:18:00,51.0,46.3,29.77,NW,315,1.3,6.2,84,0.00,,,0.00,WUHU216HW,2013-05-22 08:18:00,
2013-05-22 03:23:00,51.0,46.6,29.77,West,270,2.9,6.2,85,0.00,,,0.00,WUHU216HW,2013-05-22 08:23:00,
2013-05-22 03:28:00,51.0,46.6,29.77,NNW,338,0.0,5.3,85,0.00,,,0.00,WUHU216HW,2013-05-22 08:28:00,
2013-05-22 03:33:00,50.9,46.4,29.77,WNW,293,3.1,3.1,85,0.00,,,0.00,WUHU216HW,2013-05-22 08:33:00,
2013-05-22 03:38:00,50.9,46.4,29.77,WNW,293,2.9,9.1,85,0.00,,,0.00,WUHU216HW,2013-05-22 08:38:00,
2013-05-22 03:43:00,51.0,46.6,29.77,WNW,293,0.0,9.1,85,0.00,,,0.00,WUHU216HW,2013-05-22 08:43:00,
2013-05-22 03:48:00,50.9,46.4,29.77,WNW,293,0.0,5.8,85,0.00,,,0.00,WUHU216HW,2013-05-22 08:48:00,
2013-05-22 03:53:00,50.9,46.4,29.76,WNW,293,0.0,5.5,85,0.00,,,0.00,WUHU216HW,2013-05-22 08:53:00,
2013-05-22 03:58:00,50.9,46.4,29.76,WNW,293,3.8,3.8,85,0.00,,,0.00,WUHU216HW,2013-05-22 08:58:00,
2013-05-22 04:03:00,50.9,46.4,29.76,WNW,293,4.4,4.4,85,0.00,,,0.00,WUHU216HW,2013-05-22 09:03:00,
2013-05-22 04:08:00,50.9,46.4,29.76,West,270,0.0,4.4,85,0.00,,,0.00,WUHU216HW,2013-05-22 09:08:00,
2013-05-22 04:13:00,50.9,46.4,29.76,NW,315,4.6,4.6,85,0.00,,,0.00,WUHU216HW,2013-05-22 09:13:00,
2013-05-22 04:18:00,50.9,46.4,29.76,WNW,293,2.0,4.6,85,0.00,,,0.00,WUHU216HW,2013-05-22 09:18:00,
2013-05-22 04:23:00,50.9,46.4,29.76,WNW,293,3.5,8.5,85,0.00,,,0.00,WUHU216HW,2013-05-22 09:23:00,
2013-05-22 04:28:00,50.9,46.4,29.76,WNW,293,5.8,8.5,85,0.00,,,0.00,WUHU216HW,2013-05-22 09:28:00,
2013-05-22 04:33:00,50.9,46.4,29.76,WNW,293,4.9,6.7,85,0.00,,,0.00,WUHU216HW,2013-05-22 09:33:00,
2013-05-22 04:39:00,50.9,46.4,29.76,West,270,0.8,6.7,85,0.00,,,0.00,WUHU216HW,2013-05-22 09:39:00,
2013-05-22 04:44:00,50.7,46.3,29.76,WNW,293,3.5,7.3,85,0.00,,,0.00,WUHU216HW,2013-05-22 09:44:00,
2013-05-22 04:49:00,50.7,46.3,29.76,NNW,338,1.1,7.3,85,0.00,,,0.00,WUHU216HW,2013-05-22 09:49:00,
2013-05-22 04:54:00,50.7,46.6,29.76,WNW,293,5.1,6.7,86,0.00,,,0.00,WUHU216HW,2013-05-22 09:54:00,
2013-05-22 04:59:00,50.7,46.6,29.75,WNW,293,3.3,9.1,86,0.00,,,0.00,WUHU216HW,2013-05-22 09:59:00,
2013-05-22 05:04:00,50.5,46.1,29.76,NNW,338,5.1,9.1,85,0.00,,,0.00,WUHU216HW,2013-05-22 10:04:00,
2013-05-22 05:09:00,50.5,46.1,29.76,WNW,293,1.7,6.7,85,0.00,,,0.00,WUHU216HW,2013-05-22 10:09:00,
2013-05-22 05:14:00,50.5,46.1,29.76,WNW,293,2.9,5.3,85,0.00,,,0.00,WUHU216HW,2013-05-22 10:14:00,
2013-05-22 05:19:00,50.5,46.1,29.76,NW,315,6.0,8.7,85,0.00,,,0.00,WUHU216HW,2013-05-22 10:19:00,
2013-05-22 05:24:00,50.5,46.1,29.76,WNW,293,4.0,8.7,85,0.00,,,0.00,WUHU216HW,2013-05-22 10:24:00,
2013-05-22 05:29:00,50.5,46.1,29.76,WNW,293,3.8,6.9,85,0.00,,,0.00,WUHU216HW,2013-05-22 10:29:00,
2013-05-22 05:34:00,50.5,46.1,29.76,NNE,23,6.4,6.9,85,0.00,,,0.00,WUHU216HW,2013-05-22 10:34:00,
2013-05-22 05:39:00,50.5,46.1,29.76,WNW,293,2.6,7.3,85,0.00,,,0.00,WUHU216HW,2013-05-22 10:39:00,
2013-05-22 05:44:00,50.5,46.1,29.76,WNW,293,5.5,7.3,85,0.00,,,0.00,WUHU216HW,2013-05-22 10:44:00,
2013-05-22 05:49:00,50.5,46.1,29.76,NW,315,3.1,8.0,85,0.00,,,0.00,WUHU216HW,2013-05-22 10:49:00,
2013-05-22 05:54:00,50.5,46.1,29.76,NNW,338,4.9,8.0,85,0.00,,,0.00,WUHU216HW,2013-05-22 10:54:00,
2013-05-22 05:59:00,50.5,46.1,29.76,NW,315,4.0,6.9,85,0.00,,,0.00,WUHU216HW,2013-05-22 10:59:00,
2013-05-22 06:04:00,50.5,46.1,29.76,WNW,293,6.0,6.9,85,0.00,,,0.00,WUHU216HW,2013-05-22 11:04:00,
2013-05-22 06:09:00,50.5,46.1,29.76,NNW,338,3.3,7.8,85,0.00,,,0.00,WUHU216HW,2013-05-22 11:09:00,
2013-05-22 06:14:00,50.5,46.1,29.76,NW,315,1.7,7.8,85,0.00,,,0.00,WUHU216HW,2013-05-22 11:14:00,
2013-05-22 06:19:00,50.5,46.1,29.76,WNW,293,4.2,7.1,85,0.00,,,0.00,WUHU216HW,2013-05-22 11:19:00,
2013-05-22 06:24:00,50.5,46.1,29.76,NW,315,4.2,7.1,85,0.00,,,0.00,WUHU216HW,2013-05-22 11:24:00,
2013-05-22 06:29:00,50.5,46.1,29.76,WNW,293,2.0,6.9,85,0.00,,,0.00,WUHU216HW,2013-05-22 11:29:00,
2013-05-22 06:34:00,50.5,46.1,29.76,WNW,293,4.2,4.2,85,0.00,,,0.00,WUHU216HW,2013-05-22 11:34:00,
2013-05-22 06:39:00,50.5,46.1,29.76,WNW,293,3.1,4.2,85,0.00,,,0.00,WUHU216HW,2013-05-22 11:39:00,
2013-05-22 06:44:00,50.7,46.3,29.76,WNW,293,1.1,7.1,85,0.00,,,0.00,WUHU216HW,2013-05-22 11:44:00,
2013-05-22 06:49:00,50.7,46.3,29.76,WNW,293,2.6,8.0,85,0.00,,,0.00,WUHU216HW,2013-05-22 11:49:00,
2013-05-22 06:54:00,50.7,46.3,29.76,NW,315,4.0,8.0,85,0.00,,,0.00,WUHU216HW,2013-05-22 11:54:00,
2013-05-22 06:59:00,50.7,46.3,29.76,NNW,338,4.0,5.3,85,0.00,,,0.00,WUHU216HW,2013-05-22 11:59:00,
2013-05-22 07:04:00,50.7,46.3,29.76,WNW,293,3.1,7.1,85,0.00,,,0.00,WUHU216HW,2013-05-22 12:04:00,
2013-05-22 07:09:00,50.7,46.3,29.76,NW,315,3.1,7.1,85,0.00,,,0.00,WUHU216HW,2013-05-22 12:09:00,
2013-05-22 07:14:00,51.0,46.6,29.76,West,270,6.0,7.3,85,0.00,,,0.00,WUHU216HW,2013-05-22 12:14:00,
2013-05-22 07:19:00,51.0,46.3,29.77,NW,315,2.4,7.3,84,0.00,,,0.00,WUHU216HW,2013-05-22 12:19:00,
2013-05-22 07:24:00,51.0,46.3,29.77,WNW,293,6.7,7.3,84,0.00,,,0.00,WUHU216HW,2013-05-22 12:24:00,
2013-05-22 07:29:00,51.0,46.3,29.77,WNW,293,7.8,7.8,84,0.00,,,0.00,WUHU216HW,2013-05-22 12:29:00,
2013-05-22 07:34:00,51.2,46.5,29.77,NNW,338,5.8,8.0,84,0.00,,,0.00,WUHU216HW,2013-05-22 12:34:00,
2013-05-22 07:39:00,51.2,46.5,29.77,WNW,293,3.8,8.0,84,0.00,,,0.00,WUHU216HW,2013-05-22 12:39:00,
2013-05-22 07:44:00,51.4,46.7,29.77,NW,315,4.4,9.3,84,0.00,,,0.00,WUHU216HW,2013-05-22 12:44:00,
2013-05-22 07:49:00,51.4,46.7,29.78,WNW,293,2.4,9.3,83,0.00,,,0.00,WUHU216HW,2013-05-22 12:49:00,
2013-05-22 07:54:00,51.6,46.6,29.78,WNW,293,2.6,6.7,83,0.00,,,0.00,WUHU216HW,2013-05-22 12:54:00,
2013-05-22 07:59:00,51.9,46.9,29.78,NW,315,5.3,6.0,83,0.00,,,0.00,WUHU216HW,2013-05-22 12:59:00,
2013-05-22 08:04:00,51.9,46.9,29.78,WNW,293,3.5,6.0,83,0.00,,,0.00,WUHU216HW,2013-05-22 13:04:00,
2013-05-22 08:09:00,52.3,47.0,29.78,NW,315,3.1,10.0,82,0.00,,,0.00,WUHU216HW,2013-05-22 13:09:00,
2013-05-22 08:14:00,52.5,46.8,29.77,NW,315,6.9,10.0,81,0.00,,,0.00,WUHU216HW,2013-05-22 13:14:00,
2013-05-22 08:19:00,52.7,47.0,29.78,WNW,293,5.3,8.0,81,0.00,,,0.00,WUHU216HW,2013-05-22 13:19:00,
2013-05-22 08:24:00,52.5,46.8,29.78,WNW,293,0.0,8.0,81,0.00,,,0.00,WUHU216HW,2013-05-22 13:24:00,
2013-05-22 08:29:00,53.0,47.4,29.78,WNW,293,2.9,6.9,81,0.00,,,0.00,WUHU216HW,2013-05-22 13:29:00,
2013-05-22 08:34:00,53.0,47.1,29.79,NW,315,4.9,9.3,80,0.00,,,0.00,WUHU216HW,2013-05-22 13:34:00,
2013-05-22 08:39:00,53.2,47.6,29.79,WNW,293,3.3,9.3,81,0.00,,,0.00,WUHU216HW,2013-05-22 13:39:00,
2013-05-22 08:44:00,53.2,47.6,29.79,NW,315,3.1,6.7,81,0.00,,,0.00,WUHU216HW,2013-05-22 13:44:00,
2013-05-22 08:49:00,53.4,47.7,29.79,NNW,338,2.2,7.6,81,0.00,,,0.00,WUHU216HW,2013-05-22 13:49:00,
2013-05-22 08:54:00,53.4,47.4,29.79,NNW,338,6.2,7.6,80,0.00,,,0.00,WUHU216HW,2013-05-22 13:54:00,
2013-05-22 08:59:00,53.4,47.4,29.80,WNW,293,5.8,9.3,80,0.00,,,0.00,WUHU216HW,2013-05-22 13:59:00,
2013-05-22 09:04:00,53.4,47.4,29.80,NW,315,1.5,9.3,80,0.00,,,0.00,WUHU216HW,2013-05-22 14:04:00,
2013-05-22 09:09:00,53.2,47.6,29.80,NNW,338,4.0,5.8,81,0.00,,,0.00,WUHU216HW,2013-05-22 14:09:00,
2013-05-22 09:14:00,53.4,48.0,29.81,NW,315,4.9,6.2,82,0.00,,,0.00,WUHU216HW,2013-05-22 14:14:00,
2013-05-22 09:19:00,53.2,47.6,29.81,NW,315,0.8,6.2,81,0.00,,,0.00,WUHU216HW,2013-05-22 14:19:00,
2013-05-22 09:24:00,53.2,47.6,29.81,WNW,293,7.8,7.8,81,0.00,,,0.00,WUHU216HW,2013-05-22 14:24:00,
2013-05-22 09:29:00,53.2,47.6,29.81,NW,315,6.0,9.6,81,0.00,,,0.00,WUHU216HW,2013-05-22 14:29:00,
2013-05-22 09:34:00,53.0,47.7,29.82,WNW,293,3.1,9.6,82,0.00,,,0.00,WUHU216HW,2013-05-22 14:34:00,
2013-05-22 09:39:00,53.2,47.9,29.82,WNW,293,9.1,9.1,82,0.00,,,0.00,WUHU216HW,2013-05-22 14:39:00,
2013-05-22 09:44:00,53.2,48.2,29.82,WNW,293,2.0,9.1,83,0.00,,,0.00,WUHU216HW,2013-05-22 14:44:00,
2013-05-22 09:49:00,53.2,48.5,29.82,WNW,293,8.7,9.1,84,0.00,,,0.00,WUHU216HW,2013-05-22 14:49:00,
2013-05-22 09:54:00,52.8,47.8,29.82,NNW,338,7.3,8.7,83,0.00,,,0.00,WUHU216HW,2013-05-22 14:54:00,
2013-05-22 09:59:00,52.8,47.8,29.82,WNW,293,3.3,9.1,83,0.00,,,0.00,WUHU216HW,2013-05-22 14:59:00,
2013-05-22 10:04:00,52.8,47.8,29.82,WNW,293,0.0,9.1,83,0.00,,,0.00,WUHU216HW,2013-05-22 15:04:00,
2013-05-22 10:09:00,53.2,48.2,29.82,WNW,293,3.8,8.7,83,0.00,,,0.00,WUHU216HW,2013-05-22 15:09:00,
2013-05-22 10:14:00,53.2,47.9,29.82,NW,315,6.4,8.7,82,0.00,,,0.00,WUHU216HW,2013-05-22 15:14:00,
2013-05-22 10:19:00,53.2,47.9,29.82,NW,315,2.9,8.2,83,0.00,,,0.00,WUHU216HW,2013-05-22 15:19:00,
2013-05-22 10:24:00,53.2,47.9,29.83,NW,315,3.5,6.4,82,0.00,,,0.00,WUHU216HW,2013-05-22 15:24:00,
2013-05-22 10:29:00,53.2,47.9,29.82,WNW,293,0.0,5.8,82,0.00,,,0.00,WUHU216HW,2013-05-22 15:29:00,
2013-05-22 10:34:00,53.6,48.5,29.83,WNW,293,7.1,7.1,83,0.00,,,0.00,WUHU216HW,2013-05-22 15:34:00,
2013-05-22 10:39:00,53.7,48.4,29.82,WNW,293,3.8,9.8,82,0.00,,,0.00,WUHU216HW,2013-05-22 15:39:00,
2013-05-22 10:44:00,54.1,48.4,29.82,NW,315,3.3,9.8,81,0.00,,,0.00,WUHU216HW,2013-05-22 15:44:00,
2013-05-22 10:49:00,54.5,48.4,29.82,NNW,338,1.1,8.2,80,0.00,,,0.00,WUHU216HW,2013-05-22 15:49:00,
2013-05-22 10:54:00,55.0,48.6,29.83,WNW,293,0.0,8.2,79,0.00,,,0.00,WUHU216HW,2013-05-22 15:54:00,
2013-05-22 10:59:00,55.2,48.4,29.83,WNW,293,1.5,5.3,78,0.00,,,0.00,WUHU216HW,2013-05-22 15:59:00,
2013-05-22 11:04:00,55.2,48.4,29.83,NW,315,6.9,6.9,78,0.00,,,0.00,WUHU216HW,2013-05-22 16:04:00,
2013-05-22 11:09:00,55.2,48.4,29.83,North,0,1.7,6.9,78,0.00,,,0.00,WUHU216HW,2013-05-22 16:09:00,
2013-05-22 11:14:00,55.2,48.0,29.83,NNW,338,2.0,6.2,77,0.00,,,0.00,WUHU216HW,2013-05-22 16:14:00,
2013-05-22 11:19:00,55.5,48.4,29.83,NW,315,5.8,6.2,77,0.00,,,0.00,WUHU216HW,2013-05-22 16:19:00,
2013-05-22 11:24:00,55.5,48.4,29.83,NW,315,0.0,5.8,77,0.00,,,0.00,WUHU216HW,2013-05-22 16:24:00,
2013-05-22 11:29:00,55.5,48.4,29.84,West,270,6.4,10.9,77,0.00,,,0.00,WUHU216HW,2013-05-22 16:29:00,
2013-05-22 11:34:00,55.2,48.7,29.84,WNW,293,6.0,10.9,79,0.00,,,0.00,WUHU216HW,2013-05-22 16:34:00,
2013-05-22 11:39:00,55.4,48.5,29.84,WNW,293,6.7,8.9,78,0.00,,,0.00,WUHU216HW,2013-05-22 16:39:00,
2013-05-22 11:44:00,55.2,48.4,29.84,WNW,293,3.1,7.8,78,0.00,,,0.00,WUHU216HW,2013-05-22 16:44:00,
2013-05-22 11:49:00,55.5,49.1,29.84,NW,315,5.8,7.8,79,0.00,,,0.00,WUHU216HW,2013-05-22 16:49:00,
2013-05-22 11:54:00,55.4,48.9,29.85,NW,315,3.8,8.2,79,0.00,,,0.00,WUHU216HW,2013-05-22 16:54:00,
2013-05-22 11:59:00,55.5,49.1,29.85,NW,315,6.4,8.2,79,0.00,,,0.00,WUHU216HW,2013-05-22 16:59:00,
2013-05-22 12:04:00,55.2,48.7,29.85,NW,315,4.4,7.1,79,0.00,,,0.00,WUHU216HW,2013-05-22 17:04:00,
2013-05-22 12:09:00,55.5,49.7,29.85,NW,315,3.3,6.4,81,0.00,,,0.00,WUHU216HW,2013-05-22 17:09:00,
2013-05-22 12:14:00,55.4,49.9,29.85,WNW,293,0.0,6.4,82,0.00,,,0.00,WUHU216HW,2013-05-22 17:14:00,
2013-05-22 12:19:00,55.2,49.7,29.85,WNW,293,1.7,6.4,82,0.00,,,0.00,WUHU216HW,2013-05-22 17:19:00,
2013-05-22 12:24:00,55.0,49.5,29.85,NW,315,4.6,8.2,82,0.00,,,0.00,WUHU216HW,2013-05-22 17:24:00,
2013-05-22 12:29:00,55.2,49.7,29.86,SSW,203,0.0,8.2,82,0.00,,,0.00,WUHU216HW,2013-05-22 17:29:00,
2013-05-22 12:34:00,55.5,49.4,29.85,NNW,338,4.9,8.0,80,0.00,,,0.00,WUHU216HW,2013-05-22 17:34:00,
2013-05-22 12:39:00,55.7,48.9,29.85,NNW,338,2.2,8.0,78,0.00,,,0.00,WUHU216HW,2013-05-22 17:39:00,
2013-05-22 12:44:00,56.1,49.3,29.85,NW,315,4.0,4.0,78,0.00,,,0.00,WUHU216HW,2013-05-22 17:44:00,
2013-05-22 12:49:00,56.8,49.2,29.85,WNW,293,5.5,7.1,76,0.00,,,0.00,WUHU216HW,2013-05-22 17:49:00,
2013-05-22 12:54:00,57.0,49.4,29.86,West,270,2.9,7.1,76,0.00,,,0.00,WUHU216HW,2013-05-22 17:54:00,
2013-05-22 12:59:00,57.2,48.5,29.86,WNW,293,8.9,9.3,73,0.00,,,0.00,WUHU216HW,2013-05-22 17:59:00,
2013-05-22 13:04:00,57.3,49.1,29.86,WSW,248,5.3,9.3,74,0.00,,,0.00,WUHU216HW,2013-05-22 18:04:00,
2013-05-22 13:09:00,57.3,48.7,29.85,NNW,338,5.3,6.9,73,0.00,,,0.00,WUHU216HW,2013-05-22 18:09:00,
2013-05-22 13:14:00,57.3,49.1,29.86,NW,315,6.0,11.6,74,0.00,,,0.00,WUHU216HW,2013-05-22 18:14:00,
2013-05-22 13:19:00,57.0,48.7,29.86,NW,315,4.0,11.6,74,0.00,,,0.00,WUHU216HW,2013-05-22 18:19:00,
2013-05-22 13:24:00,56.8,48.5,29.85,NW,315,0.0,7.3,74,0.00,,,0.00,WUHU216HW,2013-05-22 18:24:00,
2013-05-22 13:29:00,56.8,48.5,29.85,WNW,293,2.9,4.2,76,0.00,,,0.00,WUHU216HW,2013-05-22 18:29:00,
2013-05-22 13:34:00,57.5,49.6,29.85,NW,315,2.6,6.4,75,0.00,,,0.00,WUHU216HW,2013-05-22 18:34:00,
2013-05-22 13:39:00,57.9,48.9,29.85,North,0,5.8,9.6,72,0.00,,,0.00,WUHU216HW,2013-05-22 18:39:00,
2013-05-22 13:44:00,58.6,49.6,29.85,WNW,293,9.1,9.6,72,0.00,,,0.00,WUHU216HW,2013-05-22 18:44:00,
2013-05-22 13:49:00,59.0,48.8,29.85,WNW,293,6.9,9.1,69,0.00,,,0.00,WUHU216HW,2013-05-22 18:49:00,
2013-05-22 13:54:00,59.0,49.2,29.85,NNW,338,0.0,8.2,71,0.00,,,0.00,WUHU216HW,2013-05-22 18:54:00,
2013-05-22 13:59:00,59.0,48.8,29.85,WNW,293,4.6,6.9,69,0.00,,,0.00,WUHU216HW,2013-05-22 18:59:00,
2013-05-22 14:04:00,59.7,49.5,29.84,NW,315,6.7,7.3,69,0.00,,,0.00,WUHU216HW,2013-05-22 19:04:00,
2013-05-22 14:09:00,59.7,49.1,29.84,WNW,293,0.0,7.3,68,0.00,,,0.00,WUHU216HW,2013-05-22 19:09:00,
2013-05-22 14:14:00,60.2,50.5,29.85,NNW,338,2.9,6.7,70,0.00,,,0.00,WUHU216HW,2013-05-22 19:14:00,
2013-05-22 14:19:00,60.6,49.6,29.84,NW,315,6.9,8.2,67,0.00,,,0.00,WUHU216HW,2013-05-22 19:19:00,
2013-05-22 14:24:00,60.8,49.8,29.84,NNW,338,2.9,8.2,67,0.00,,,0.00,WUHU216HW,2013-05-22 19:24:00,
2013-05-22 14:29:00,61.1,49.7,29.84,NNW,338,4.6,6.2,66,0.00,,,0.00,WUHU216HW,2013-05-22 19:29:00,
2013-05-22 14:34:00,61.1,48.9,29.85,NW,315,8.7,8.7,64,0.00,,,0.00,WUHU216HW,2013-05-22 19:34:00,
2013-05-22 14:39:00,60.9,49.1,29.85,WNW,293,6.7,8.7,65,0.00,,,0.00,WUHU216HW,2013-05-22 19:39:00,
2013-05-22 14:44:00,61.3,50.3,29.85,WNW,293,6.2,6.7,67,0.00,,,0.00,WUHU216HW,2013-05-22 19:44:00,
2013-05-22 14:49:00,61.7,49.4,29.85,NW,315,0.2,6.2,66,0.00,,,0.00,WUHU216HW,2013-05-22 19:49:00,
2013-05-22 14:54:00,61.8,50.3,29.85,North,0,2.2,6.4,66,0.00,,,0.00,WUHU216HW,2013-05-22 19:54:00,
2013-05-22 14:59:00,61.8,49.5,29.85,North,0,5.1,6.4,64,0.00,,,0.00,WUHU216HW,2013-05-22 19:59:00,
2013-05-22 15:04:00,61.7,49.8,29.85,NW,315,5.1,6.0,65,0.00,,,0.00,WUHU216HW,2013-05-22 20:04:00,
2013-05-22 15:09:00,61.7,49.4,29.85,WNW,293,1.5,6.0,64,0.00,,,0.00,WUHU216HW,2013-05-22 20:09:00,
2013-05-22 15:14:00,61.7,49.8,29.85,WNW,293,4.4,11.1,65,0.00,,,0.00,WUHU216HW,2013-05-22 20:14:00,
2013-05-22 15:19:00,61.7,49.8,29.85,NW,315,2.2,11.1,65,0.00,,,0.00,WUHU216HW,2013-05-22 20:19:00,
2013-05-22 15:24:00,61.3,49.4,29.85,NW,315,4.0,7.1,65,0.00,,,0.00,WUHU216HW,2013-05-22 20:24:00,
2013-05-22 15:29:00,61.1,49.7,29.85,North,0,3.3,7.1,66,0.00,,,0.00,WUHU216HW,2013-05-22 20:29:00,
2013-05-22 15:34:00,61.5,49.6,29.85,WNW,293,5.8,7.8,65,0.00,,,0.00,WUHU216HW,2013-05-22 20:34:00,
2013-05-22 15:39:00,61.3,49.4,29.85,NW,315,4.2,10.0,65,0.00,,,0.00,WUHU216HW,2013-05-22 20:39:00,
2013-05-22 15:44:00,60.9,49.5,29.85,WNW,293,8.9,10.0,66,0.00,,,0.00,WUHU216HW,2013-05-22 20:44:00,
2013-05-22 15:49:00,60.6,49.2,29.85,NW,315,6.7,8.9,66,0.00,,,0.00,WUHU216HW,2013-05-22 20:49:00,
2013-05-22 15:54:00,60.4,49.4,29.85,NNW,338,3.8,8.9,67,0.00,,,0.00,WUHU216HW,2013-05-22 20:54:00,
2013-05-22 15:59:00,60.0,49.1,29.86,NW,315,3.8,6.7,67,0.00,,,0.00,WUHU216HW,2013-05-22 20:59:00,
2013-05-22 16:04:00,60.2,49.7,29.85,NW,315,1.3,6.4,68,0.00,,,0.00,WUHU216HW,2013-05-22 21:04:00,
2013-05-22 16:09:00,60.4,49.4,29.86,WNW,293,3.3,6.4,67,0.00,,,0.00,WUHU216HW,2013-05-22 21:09:00,
2013-05-22 16:14:00,60.9,49.5,29.86,WNW,293,4.4,6.4,66,0.00,,,0.00,WUHU216HW,2013-05-22 21:14:00,
2013-05-22 16:19:00,61.1,49.7,29.85,WNW,293,5.3,7.6,66,0.00,,,0.00,WUHU216HW,2013-05-22 21:19:00,
2013-05-22 16:24:00,61.3,49.4,29.85,WNW,293,5.8,7.6,65,0.00,,,0.00,WUHU216HW,2013-05-22 21:24:00,
2013-05-22 16:29:00,61.3,49.4,29.86,NW,315,7.1,8.5,65,0.00,,,0.00,WUHU216HW,2013-05-22 21:29:00,
2013-05-22 16:34:00,60.8,49.4,29.86,WNW,293,0.0,8.5,66,0.00,,,0.00,WUHU216HW,2013-05-22 21:34:00,
2013-05-22 16:39:00,60.6,49.6,29.86,WNW,293,0.0,5.1,67,0.00,,,0.00,WUHU216HW,2013-05-22 21:39:00,
2013-05-22 16:44:00,60.6,49.6,29.86,NW,315,0.8,2.2,67,0.00,,,0.00,WUHU216HW,2013-05-22 21:44:00,
2013-05-22 16:49:00,60.4,49.4,29.86,WNW,293,0.0,2.2,67,0.00,,,0.00,WUHU216HW,2013-05-22 21:49:00,
2013-05-22 16:54:00,60.4,49.0,29.86,North,0,4.4,6.0,66,0.00,,,0.00,WUHU216HW,2013-05-22 21:54:00,
2013-05-22 16:59:00,60.2,48.8,29.86,North,0,1.7,6.0,67,0.00,,,0.00,WUHU216HW,2013-05-22 21:59:00,
2013-05-22 17:04:00,60.2,49.7,29.86,WNW,293,0.0,4.4,68,0.00,,,0.00,WUHU216HW,2013-05-22 22:04:00,
2013-05-22 17:09:00,60.2,49.7,29.86,North,0,1.3,2.9,69,0.00,,,0.00,WUHU216HW,2013-05-22 22:09:00,
2013-05-22 17:14:00,60.4,49.8,29.86,WNW,293,1.7,1.7,68,0.00,,,0.00,WUHU216HW,2013-05-22 22:14:00,
2013-05-22 17:19:00,60.6,49.6,29.87,WNW,293,8.2,8.2,67,0.00,,,0.00,WUHU216HW,2013-05-22 22:19:00,
2013-05-22 17:24:00,60.4,49.4,29.87,NW,315,6.4,8.2,67,0.00,,,0.00,WUHU216HW,2013-05-22 22:24:00,
2013-05-22 17:29:00,60.2,49.3,29.87,North,0,0.0,7.3,68,0.00,,,0.00,WUHU216HW,2013-05-22 22:29:00,
2013-05-22 17:34:00,59.7,49.1,29.88,WNW,293,1.5,6.4,68,0.00,,,0.00,WUHU216HW,2013-05-22 22:34:00,
2013-05-22 17:39:00,59.9,49.7,29.88,NW,315,1.7,6.4,69,0.00,,,0.00,WUHU216HW,2013-05-22 22:39:00,
2013-05-22 17:44:00,59.9,49.7,29.88,WNW,293,1.3,1.7,68,0.00,,,0.00,WUHU216HW,2013-05-22 22:44:00,
2013-05-22 17:49:00,59.9,49.3,29.88,NW,315,6.0,8.7,68,0.00,,,0.00,WUHU216HW,2013-05-22 22:49:00,
2013-05-22 17:54:00,59.7,49.5,29.88,NNW,338,1.1,8.7,69,0.00,,,0.00,WUHU216HW,2013-05-22 22:54:00,
2013-05-22 17:59:00,59.7,49.5,29.88,NNW,338,1.7,6.2,69,0.00,,,0.00,WUHU216HW,2013-05-22 22:59:00,
2013-05-22 18:04:00,59.7,49.5,29.88,North,0,0.0,6.2,69,0.00,,,0.00,WUHU216HW,2013-05-22 23:04:00,
2013-05-22 18:09:00,59.7,49.5,29.88,WNW,293,1.5,6.7,69,0.00,,,0.00,WUHU216HW,2013-05-22 23:09:00,
2013-05-22 18:14:00,59.7,49.5,29.88,WNW,293,1.3,6.7,69,0.00,,,0.00,WUHU216HW,2013-05-22 23:14:00,
2013-05-22 18:19:00,59.7,49.5,29.88,North,0,0.0,2.2,69,0.00,,,0.00,WUHU216HW,2013-05-22 23:19:00,
2013-05-22 18:24:00,59.9,49.7,29.88,NNW,338,2.0,6.7,69,0.00,,,0.00,WUHU216HW,2013-05-22 23:24:00,
2013-05-22 18:29:00,59.9,49.7,29.88,NNW,338,1.5,6.7,69,0.00,,,0.00,WUHU216HW,2013-05-22 23:29:00,
2013-05-22 18:34:00,59.3,50.3,29.89,North,0,1.5,5.1,72,0.00,,,0.00,WUHU216HW,2013-05-22 23:34:00,
2013-05-22 18:39:00,59.0,50.0,29.89,NNW,338,1.1,5.1,72,0.00,,,0.00,WUHU216HW,2013-05-22 23:39:00,
2013-05-22 18:44:00,58.6,50.0,29.90,North,0,0.0,6.2,73,0.00,,,0.00,WUHU216HW,2013-05-22 23:44:00,
2013-05-22 18:49:00,58.4,49.8,29.90,North,0,0.0,6.2,73,0.00,,,0.00,WUHU216HW,2013-05-22 23:49:00,
2013-05-22 18:54:00,58.2,49.6,29.90,North,0,0.0,2.4,73,0.00,,,0.00,WUHU216HW,2013-05-22 23:54:00,
2013-05-22 18:59:00,58.2,49.6,29.90,SW,225,1.7,2.4,74,0.00,,,0.00,WUHU216HW,2013-05-22 23:59:00,
2013-05-22 19:04:00,58.1,50.5,29.90,North,0,0.0,1.7,76,0.00,,,0.00,WUHU216HW,2013-05-23 00:04:00,
2013-05-22 19:09:00,57.9,50.0,29.90,NW,315,0.8,6.0,75,0.00,,,0.00,WUHU216HW,2013-05-23 00:09:00,
2013-05-22 19:14:00,57.5,49.6,29.90,North,0,0.8,6.0,75,0.00,,,0.00,WUHU216HW,2013-05-23 00:14:00,
2013-05-22 19:19:00,57.5,49.6,29.90,WNW,293,3.1,3.1,76,0.00,,,0.00,WUHU216HW,2013-05-23 00:19:00,
2013-05-22 19:24:00,57.5,49.6,29.90,North,0,2.0,3.1,76,0.00,,,0.00,WUHU216HW,2013-05-23 00:24:00,
2013-05-22 19:29:00,57.5,49.6,29.90,North,0,2.2,3.1,76,0.00,,,0.00,WUHU216HW,2013-05-23 00:29:00,
2013-05-22 19:34:00,57.3,49.8,29.91,North,0,0.0,2.2,76,0.00,,,0.00,WUHU216HW,2013-05-23 00:34:00,
2013-05-22 19:39:00,57.5,50.0,29.91,WNW,293,0.0,2.2,76,0.00,,,0.00,WUHU216HW,2013-05-23 00:39:00,
2013-05-22 19:44:00,57.3,49.8,29.91,NNW,338,1.5,1.5,76,0.00,,,0.00,WUHU216HW,2013-05-23 00:44:00,
2013-05-22 19:49:00,57.2,49.2,29.91,WNW,293,3.1,3.1,75,0.00,,,0.00,WUHU216HW,2013-05-23 00:49:00,
2013-05-22 19:54:00,57.2,49.2,29.91,WNW,293,0.0,4.0,75,0.00,,,0.00,WUHU216HW,2013-05-23 00:54:00,
2013-05-22 19:59:00,57.0,49.1,29.91,NW,315,0.0,4.0,75,0.00,,,0.00,WUHU216HW,2013-05-23 00:59:00,
2013-05-22 20:04:00,56.8,49.2,29.92,WNW,293,1.7,1.7,76,0.00,,,0.00,WUHU216HW,2013-05-23 01:04:00,
2013-05-22 20:09:00,56.8,49.2,29.93,NW,315,0.0,1.7,76,0.00,,,0.00,WUHU216HW,2013-05-23 01:09:00,
2013-05-22 20:14:00,56.6,49.1,29.93,WNW,293,0.0,1.7,76,0.00,,,0.00,WUHU216HW,2013-05-23 01:14:00,
2013-05-22 20:19:00,56.6,49.1,29.93,WNW,293,0.0,0.0,76,0.00,,,0.00,WUHU216HW,2013-05-23 01:19:00,
2013-05-22 20:24:00,56.6,49.1,29.93,NW,315,0.0,2.9,76,0.00,,,0.00,WUHU216HW,2013-05-23 01:24:00,
2013-05-22 20:29:00,56.4,49.3,29.93,NNW,338,0.0,4.2,77,0.00,,,0.00,WUHU216HW,2013-05-23 01:29:00,
2013-05-22 20:34:00,56.4,49.3,29.93,WNW,293,0.0,4.2,78,0.00,,,0.00,WUHU216HW,2013-05-23 01:34:00,
2013-05-22 20:39:00,56.4,49.3,29.93,NNW,338,0.0,0.0,78,0.00,,,0.00,WUHU216HW,2013-05-23 01:39:00,
2013-05-22 20:44:00,56.3,49.4,29.93,WNW,293,0.0,0.0,78,0.00,,,0.00,WUHU216HW,2013-05-23 01:44:00,
2013-05-22 20:49:00,56.1,49.3,29.93,WNW,293,0.0,0.0,78,0.00,,,0.00,WUHU216HW,2013-05-23 01:49:00,
2013-05-22 20:54:00,56.1,49.3,29.94,WNW,293,0.0,0.0,78,0.00,,,0.00,WUHU216HW,2013-05-23 01:54:00,
2013-05-22 20:59:00,56.1,49.3,29.94,NW,315,0.0,0.0,78,0.00,,,0.00,WUHU216HW,2013-05-23 01:59:00,
2013-05-22 21:04:00,56.1,49.3,29.94,NNW,338,0.0,0.0,77,0.00,,,0.00,WUHU216HW,2013-05-23 02:04:00,
2013-05-22 21:09:00,55.9,48.7,29.94,NNW,338,0.0,0.0,76,0.00,,,0.00,WUHU216HW,2013-05-23 02:09:00,
2013-05-22 21:14:00,55.9,48.7,29.95,NNW,338,0.0,0.0,76,0.00,,,0.00,WUHU216HW,2013-05-23 02:14:00,
2013-05-22 21:19:00,55.7,48.2,29.95,NW,315,0.0,0.0,77,0.00,,,0.00,WUHU216HW,2013-05-23 02:19:00,
2013-05-22 21:24:00,55.5,48.0,29.95,NNW,338,0.0,0.0,76,0.00,,,0.00,WUHU216HW,2013-05-23 02:24:00,
2013-05-22 21:29:00,55.5,48.0,29.95,North,0,0.0,0.0,76,0.00,,,0.00,WUHU216HW,2013-05-23 02:29:00,
2013-05-22 21:34:00,55.5,48.0,29.96,WNW,293,0.0,0.0,76,0.00,,,0.00,WUHU216HW,2013-05-23 02:34:00,
2013-05-22 21:39:00,55.5,48.0,29.96,North,0,0.0,2.0,76,0.00,,,0.00,WUHU216HW,2013-05-23 02:39:00,
2013-05-22 21:44:00,55.5,48.0,29.96,North,0,0.0,2.0,76,0.00,,,0.00,WUHU216HW,2013-05-23 02:44:00,
2013-05-22 21:49:00,55.2,47.7,29.96,North,0,2.0,5.3,76,0.00,,,0.00,WUHU216HW,2013-05-23 02:49:00,
2013-05-22 21:54:00,55.2,47.7,29.96,NNW,338,0.0,5.3,77,0.00,,,0.00,WUHU216HW,2013-05-23 02:54:00,
2013-05-22 21:59:00,55.2,47.7,29.96,NW,315,1.7,2.0,77,0.00,,,0.00,WUHU216HW,2013-05-23 02:59:00,
2013-05-22 22:04:00,55.0,47.9,29.96,North,0,0.0,1.7,77,0.00,,,0.00,WUHU216HW,2013-05-23 03:04:00,
2013-05-22 22:09:00,54.8,47.7,29.96,NW,315,0.0,1.7,77,0.00,,,0.00,WUHU216HW,2013-05-23 03:09:00,
2013-05-22 22:14:00,54.6,47.5,29.97,NW,315,0.0,7.3,77,0.00,,,0.00,WUHU216HW,2013-05-23 03:14:00,
2013-05-22 22:19:00,54.5,47.7,29.97,North,0,0.0,7.3,78,0.00,,,0.00,WUHU216HW,2013-05-23 03:19:00,
2013-05-22 22:24:00,54.5,47.7,29.97,NNW,338,0.0,3.1,78,0.00,,,0.00,WUHU216HW,2013-05-23 03:24:00,
2013-05-22 22:29:00,54.3,47.6,29.97,WNW,293,0.0,0.0,78,0.00,,,0.00,WUHU216HW,2013-05-23 03:29:00,
2013-05-22 22:34:00,54.1,47.7,29.98,NNW,338,0.0,0.0,79,0.00,,,0.00,WUHU216HW,2013-05-23 03:34:00,
2013-05-22 22:39:00,54.1,47.7,29.98,NNW,338,0.0,0.0,79,0.00,,,0.00,WUHU216HW,2013-05-23 03:39:00,
2013-05-22 22:44:00,54.1,47.7,29.98,NW,315,0.0,0.0,80,0.00,,,0.00,WUHU216HW,2013-05-23 03:44:00,
2013-05-22 22:49:00,54.1,47.7,29.98,NNW,338,1.1,1.1,80,0.00,,,0.00,WUHU216HW,2013-05-23 03:49:00,
2013-05-22 22:54:00,53.9,47.9,29.98,WNW,293,0.0,1.1,80,0.00,,,0.00,WUHU216HW,2013-05-23 03:54:00,
2013-05-22 22:59:00,53.9,47.9,29.98,NW,315,0.0,1.1,80,0.00,,,0.00,WUHU216HW,2013-05-23 03:59:00,
2013-05-22 23:04:00,53.7,47.8,29.98,NW,315,0.0,0.0,80,0.00,,,0.00,WUHU216HW,2013-05-23 04:04:00,
2013-05-22 23:05:00,53.7,47.8,29.98,NW,315,0.0,0.0,80,0.00,,,0.00,WUHU216HW,2013-05-23 04:05:00,
2013-05-22 23:09:00,53.6,47.6,29.99,WNW,293,0.0,4.4,80,0.00,,,0.00,WUHU216HW,2013-05-23 04:09:00,
2013-05-22 23:14:00,53.4,47.4,29.99,WNW,293,0.0,4.4,81,0.00,,,0.00,WUHU216HW,2013-05-23 04:14:00,
2013-05-22 23:15:00,53.4,47.4,29.99,WNW,293,0.0,4.4,81,0.00,,,0.00,WUHU216HW,2013-05-23 04:15:00,
2013-05-22 23:20:00,53.2,47.6,29.99,NW,315,0.0,0.0,81,0.00,,,0.00,WUHU216HW,2013-05-23 04:20:00,
2013-05-22 23:25:00,53.0,47.4,29.99,NW,315,0.0,0.0,81,0.00,,,0.00,WUHU216HW,2013-05-23 04:25:00,
2013-05-22 23:30:00,52.8,47.5,29.99,NW,315,0.0,0.0,82,0.00,,,0.00,WUHU216HW,2013-05-23 04:30:00,
2013-05-22 23:35:00,52.8,47.5,29.99,WNW,293,0.0,0.0,82,0.00,,,0.00,WUHU216HW,2013-05-23 04:35:00,
2013-05-22 23:40:00,52.7,47.6,29.99,NW,315,0.0,2.9,83,0.00,,,0.00,WUHU216HW,2013-05-23 04:40:00,
2013-05-22 23:45:00,52.7,47.6,29.99,NNW,338,0.4,2.9,83,0.00,,,0.00,WUHU216HW,2013-05-23 04:45:00,
2013-05-22 23:50:00,52.7,47.6,30.00,North,0,0.0,1.7,83,0.00,,,0.00,WUHU216HW,2013-05-23 04:50:00,
2013-05-22 23:55:00,52.7,47.6,30.00,North,0,0.0,0.4,83,0.00,,,0.00,WUHU216HW,2013-05-23 04:55:00,